• In Österreich
  • Länderverzeichnis
  • Für 7 Tage
  • Wassertemperatur
  • Satellitenkarten
  • Wetterkarte
  • News
  • Widgets
  • user-avatar
    Anmelden

    Stündliche Wetter Warna

    Heute, 25 Mai, Freitag

    Zeit Temperatur Niederschläge Wind Luftdruck Luftfeuchtigkeit
    00:00 +17°C° 0,2 mm 3 m/S 744 mmHg 74%
    01:00 +16°C° 0,2 mm 3 m/S 744 mmHg 77%
    02:00 +16°C° 0,2 mm 3 m/S 745 mmHg 80%
    03:00 +16°C° 0,4 mm 3 m/S 744 mmHg 82%
    04:00 +16°C° 0,4 mm 3 m/S 744 mmHg 84%
    05:00 +15°C° 0,4 mm 4 m/S 744 mmHg 86%
    06:00 +17°C° 0,4 mm 4 m/S 745 mmHg 82%
    07:00 +19°C° 0,4 mm 4 m/S 745 mmHg 78%
    08:00 +21°C° 0,4 mm 5 m/S 745 mmHg 74%
    09:00 +22°C° 0,5 mm 5 m/S 745 mmHg 71%
    10:00 +23°C° 0,5 mm 5 m/S 745 mmHg 68%
    11:00 +24°C° 0,5 mm 6 m/S 745 mmHg 64%
    12:00 +24°C° 0,7 mm 6 m/S 745 mmHg 65%
    13:00 +24°C° 0,7 mm 6 m/S 745 mmHg 66%
    14:00 +24°C° 0,7 mm 6 m/S 745 mmHg 67%
    15:00 +25°C° 0,3 mm 5 m/S 745 mmHg 69%
    16:00 +25°C° 0,3 mm 5 m/S 745 mmHg 70%
    17:00 +23°C° 0,3 mm 5 m/S 745 mmHg 72%
    18:00 +22°C° 0 mm 5 m/S 745 mmHg 76%
    19:00 +20°C° 0 mm 4 m/S 745 mmHg 80%
    20:00 +18°C° 0 mm 3 m/S 746 mmHg 83%
    21:00 +18°C° 0 mm 3 m/S 746 mmHg 80%
    22:00 +17°C° 0 mm 3 m/S 746 mmHg 77%
    23:00 +17°C° 0 mm 3 m/S 746 mmHg 74%

    Morgen, 26 Mai, Samstag

    Zeit Temperatur Niederschläge Wind Luftdruck Luftfeuchtigkeit
    00:00 +17°C° 0 mm 4 m/S 746 mmHg 73%
    01:00 +17°C° 0 mm 4 m/S 746 mmHg 72%
    02:00 +17°C° 0 mm 4 m/S 746 mmHg 71%
    03:00 +16°C° 0 mm 5 m/S 746 mmHg 74%
    04:00 +15°C° 0 mm 5 m/S 746 mmHg 78%
    05:00 +15°C° 0 mm 5 m/S 746 mmHg 81%
    06:00 +17°C° 0 mm 6 m/S 746 mmHg 80%
    07:00 +19°C° 0 mm 6 m/S 747 mmHg 80%
    08:00 +21°C° 0 mm 7 m/S 747 mmHg 80%
    09:00 +21°C° 0,6 mm 7 m/S 747 mmHg 80%
    10:00 +21°C° 0,6 mm 7 m/S 747 mmHg 80%
    11:00 +22°C° 0,6 mm 8 m/S 748 mmHg 81%
    12:00 +22°C° 0,4 mm 8 m/S 748 mmHg 79%
    13:00 +22°C° 0,4 mm 8 m/S 748 mmHg 77%
    14:00 +23°C° 0,4 mm 8 m/S 748 mmHg 75%
    15:00 +22°C° 0,1 mm 8 m/S 748 mmHg 76%
    16:00 +22°C° 0,1 mm 7 m/S 748 mmHg 76%
    17:00 +21°C° 0,1 mm 7 m/S 748 mmHg 77%
    18:00 +20°C° 0 mm 7 m/S 748 mmHg 81%
    19:00 +19°C° 0 mm 6 m/S 748 mmHg 85%
    20:00 +17°C° 0 mm 6 m/S 748 mmHg 89%
    21:00 +16°C° 0 mm 5 m/S 749 mmHg 91%
    22:00 +16°C° 0 mm 5 m/S 749 mmHg 93%
    23:00 +15°C° 0 mm 5 m/S 749 mmHg 95%

    übermorgen, 27 Mai, Sonntag

    Zeit Temperatur Niederschläge Wind Luftdruck Luftfeuchtigkeit
    00:00 +15°C° 0 mm 5 m/S 749 mmHg 95%
    01:00 +15°C° 0 mm 5 m/S 749 mmHg 95%
    02:00 +15°C° 0 mm 5 m/S 749 mmHg 94%
    03:00 +15°C° 0,1 mm 6 m/S 748 mmHg 94%
    04:00 +15°C° 0,1 mm 6 m/S 748 mmHg 94%
    05:00 +15°C° 0,1 mm 6 m/S 748 mmHg 94%
    06:00 +16°C° 0 mm 6 m/S 749 mmHg 91%
    07:00 +16°C° 0 mm 6 m/S 749 mmHg 89%
    08:00 +17°C° 0 mm 7 m/S 749 mmHg 86%
    09:00 +17°C° 0,1 mm 7 m/S 749 mmHg 84%
    10:00 +18°C° 0,1 mm 7 m/S 750 mmHg 82%
    11:00 +20°C° 0,1 mm 7 m/S 750 mmHg 80%
    12:00 +20°C° 0,1 mm 7 m/S 750 mmHg 77%
    13:00 +21°C° 0,1 mm 7 m/S 749 mmHg 74%
    14:00 +21°C° 0,1 mm 7 m/S 749 mmHg 71%
    15:00 +21°C° 0 mm 6 m/S 749 mmHg 71%
    16:00 +21°C° 0 mm 6 m/S 749 mmHg 71%
    17:00 +21°C° 0 mm 6 m/S 749 mmHg 71%
    18:00 +20°C° 0 mm 6 m/S 749 mmHg 76%
    19:00 +17°C° 0 mm 5 m/S 749 mmHg 81%
    20:00 +15°C° 0 mm 5 m/S 749 mmHg 86%
    21:00 +15°C° 0 mm 4 m/S 749 mmHg 86%
    22:00 +14°C° 0 mm 4 m/S 749 mmHg 87%
    23:00 +13°C° 0 mm 4 m/S 749 mmHg 87%

    28 Mai, Montag

    Zeit Temperatur Niederschläge Wind Luftdruck Luftfeuchtigkeit
    00:00 +13°C° 0 mm 4 m/S 749 mmHg 87%
    01:00 +13°C° 0 mm 4 m/S 749 mmHg 86%
    02:00 +13°C° 0 mm 5 m/S 749 mmHg 86%
    03:00 +13°C° 0 mm 5 m/S 749 mmHg 86%
    04:00 +13°C° 0 mm 5 m/S 749 mmHg 86%
    05:00 +12°C° 0 mm 5 m/S 749 mmHg 86%
    06:00 +14°C° 0 mm 6 m/S 749 mmHg 82%
    07:00 +16°C° 0 mm 7 m/S 749 mmHg 77%
    08:00 +18°C° 0 mm 7 m/S 750 mmHg 73%
    09:00 +20°C° 0 mm 7 m/S 750 mmHg 70%
    10:00 +21°C° 0 mm 7 m/S 750 mmHg 68%
    11:00 +22°C° 0 mm 7 m/S 750 mmHg 66%
    12:00 +22°C° 0 mm 7 m/S 750 mmHg 64%
    13:00 +22°C° 0 mm 7 m/S 750 mmHg 63%
    14:00 +23°C° 0 mm 7 m/S 750 mmHg 61%
    15:00 +22°C° 0 mm 7 m/S 749 mmHg 62%
    16:00 +22°C° 0 mm 7 m/S 749 mmHg 62%
    17:00 +22°C° 0 mm 6 m/S 749 mmHg 63%
    18:00 +20°C° 0 mm 6 m/S 749 mmHg 69%
    19:00 +17°C° 0 mm 5 m/S 749 mmHg 76%
    20:00 +15°C° 0 mm 5 m/S 749 mmHg 82%
    21:00 +15°C° 0 mm 4 m/S 749 mmHg 82%
    22:00 +14°C° 0 mm 4 m/S 750 mmHg 83%
    23:00 +13°C° 0 mm 4 m/S 750 mmHg 83%

    29 Mai, Dienstag

    Zeit Temperatur Niederschläge Wind Luftdruck Luftfeuchtigkeit
    00:00 +13°C° 0 mm 5 m/S 749 mmHg 80%
    01:00 +13°C° 0 mm 5 m/S 749 mmHg 78%
    02:00 +13°C° 0 mm 5 m/S 749 mmHg 76%
    03:00 +13°C° 0 mm 5 m/S 749 mmHg 76%
    04:00 +13°C° 0 mm 5 m/S 749 mmHg 77%
    05:00 +13°C° 0 mm 5 m/S 749 mmHg 78%
    06:00 +15°C° 0 mm 6 m/S 749 mmHg 74%
    07:00 +17°C° 0 mm 7 m/S 749 mmHg 71%
    08:00 +20°C° 0 mm 7 m/S 749 mmHg 68%
    09:00 +21°C° 0 mm 8 m/S 749 mmHg 65%
    10:00 +22°C° 0 mm 8 m/S 749 mmHg 61%
    11:00 +23°C° 0 mm 8 m/S 749 mmHg 58%
    12:00 +23°C° 0 mm 8 m/S 749 mmHg 58%
    13:00 +23°C° 0 mm 8 m/S 749 mmHg 58%
    14:00 +23°C° 0 mm 8 m/S 749 mmHg 58%
    15:00 +23°C° 0 mm 8 m/S 748 mmHg 60%
    16:00 +22°C° 0 mm 8 m/S 748 mmHg 62%
    17:00 +22°C° 0 mm 7 m/S 748 mmHg 63%
    18:00 +20°C° 0 mm 7 m/S 748 mmHg 68%
    19:00 +19°C° 0 mm 6 m/S 748 mmHg 73%
    20:00 +17°C° 0 mm 5 m/S 748 mmHg 77%
    21:00 +16°C° 0 mm 5 m/S 748 mmHg 80%
    22:00 +16°C° 0 mm 5 m/S 747 mmHg 83%
    23:00 +16°C° 0 mm 5 m/S 747 mmHg 85%

    30 Mai, Mittwoch

    Zeit Temperatur Niederschläge Wind Luftdruck Luftfeuchtigkeit
    00:00 +15°C° 0 mm 5 m/S 747 mmHg 88%
    01:00 +15°C° 0 mm 5 m/S 747 mmHg 90%
    02:00 +15°C° 0 mm 5 m/S 747 mmHg 92%
    03:00 +15°C° 0 mm 5 m/S 747 mmHg 93%
    04:00 +15°C° 0 mm 5 m/S 747 mmHg 93%
    05:00 +14°C° 0 mm 5 m/S 747 mmHg 94%
    06:00 +16°C° 0 mm 6 m/S 747 mmHg 88%
    07:00 +17°C° 0 mm 6 m/S 747 mmHg 82%
    08:00 +20°C° 0 mm 7 m/S 747 mmHg 76%
    09:00 +21°C° 0 mm 7 m/S 747 mmHg 72%
    10:00 +21°C° 0 mm 7 m/S 747 mmHg 67%
    11:00 +22°C° 0 mm 7 m/S 747 mmHg 63%
    12:00 +23°C° 0 mm 7 m/S 747 mmHg 61%
    13:00 +23°C° 0 mm 7 m/S 747 mmHg 59%
    14:00 +23°C° 0 mm 7 m/S 746 mmHg 56%
    15:00 +23°C° 0 mm 7 m/S 746 mmHg 57%
    16:00 +22°C° 0 mm 7 m/S 746 mmHg 58%
    17:00 +22°C° 0 mm 7 m/S 746 mmHg 59%
    18:00 +20°C° 0 mm 6 m/S 746 mmHg 65%
    19:00 +17°C° 0 mm 5 m/S 746 mmHg 71%
    20:00 +15°C° 0 mm 5 m/S 746 mmHg 77%
    21:00 +15°C° 0 mm 5 m/S 746 mmHg 76%
    22:00 +14°C° 0 mm 5 m/S 745 mmHg 74%
    23:00 +14°C° 0 mm 5 m/S 745 mmHg 73%
    Mehr zeigen